Location: Arroyo Retuerta
(40.5469°N, 4.3534°W)
Time: 05:45:31
(UTC+00:00)

Meteor 1-22 Rocket - Pass Details

Date: 01 June 2020
Orbit: 787 x 940 km, 81.2° (Epoch: 05 July)

Event Time Altitude Azimuth Distance (km) Brightness Sun altitude
Rises 21:58:41 0° 352° (N) 3,541 8.6 -19.6°
Reaches altitude 10° 22:01:14 10° 355° (N) 2,575 7.6 -19.9°
Maximum altitude 22:07:05 70° 79° (E) 923 4.2 -20.5°
Enters shadow 22:09:03 41° 150° (SSE) 1,224 4.5 -20.7°
